TimeMST,TemperatureF,Dew PointF,Humidity,Sea Level PressureIn,VisibilityMPH,Wind Direction,Wind SpeedMPH,Gust SpeedMPH,PrecipitationIn,Events,Conditions,WindDirDegrees,DateUTC
12:56 AM,30.9,17.1,57,29.52,10.0,WSW,31.1,41.4,N/A,,Mostly Cloudy,250,2014-01-10 07:56:00
1:56 AM,30.9,17.1,57,29.52,10.0,West,25.3,32.2,N/A,,Clear,260,2014-01-10 08:56:00
2:56 AM,30.9,19.9,64,29.49,10.0,West,27.6,35.7,N/A,,Overcast,260,2014-01-10 09:56:00
3:56 AM,30.0,19.0,64,29.49,10.0,West,20.7,27.6,N/A,,Partly Cloudy,260,2014-01-10 10:56:00
4:56 AM,32.0,19.9,61,29.49,10.0,West,24.2,34.5,N/A,,Clear,260,2014-01-10 11:56:00
5:56 AM,30.9,19.9,64,29.49,10.0,West,24.2,34.5,N/A,,Clear,260,2014-01-10 12:56:00
6:56 AM,32.0,19.0,59,29.52,10.0,WNW,12.7,23.0,N/A,,Clear,290,2014-01-10 13:56:00
7:56 AM,28.0,18.0,66,29.54,10.0,West,16.1,-,N/A,,Clear,260,2014-01-10 14:56:00
8:56 AM,32.0,21.9,66,29.55,10.0,West,23.0,28.8,N/A,,Clear,270,2014-01-10 15:56:00
9:56 AM,34.0,21.9,61,29.58,10.0,West,17.3,-,N/A,,Clear,270,2014-01-10 16:56:00
10:56 AM,37.0,24.1,59,29.58,10.0,West,16.1,-,N/A,,Clear,270,2014-01-10 17:56:00
11:56 AM,37.9,25.0,60,29.58,10.0,West,15.0,-,N/A,,Clear,270,2014-01-10 18:56:00
12:56 PM,39.0,24.1,55,29.56,10.0,West,23.0,34.5,N/A,,Clear,260,2014-01-10 19:56:00
1:56 PM,37.0,25.0,62,29.59,10.0,WSW,25.3,38.0,N/A,,Scattered Clouds,250,2014-01-10 20:56:00
2:56 PM,36.0,26.1,67,29.64,10.0,WSW,19.6,-,N/A,,Clear,250,2014-01-10 21:56:00
3:56 PM,36.0,25.0,64,29.67,10.0,West,18.4,-,N/A,,Clear,270,2014-01-10 22:56:00
4:56 PM,34.0,23.0,64,29.69,10.0,West,18.4,-,N/A,,Clear,270,2014-01-10 23:56:00
5:56 PM,30.0,21.9,72,29.74,10.0,WNW,10.4,-,N/A,,Clear,290,2014-01-11 00:56:00
6:56 PM,30.9,21.0,67,29.76,10.0,WNW,12.7,-,N/A,,Clear,290,2014-01-11 01:56:00
7:56 PM,35.1,21.9,59,29.78,10.0,West,15.0,-,N/A,,Scattered Clouds,270,2014-01-11 02:56:00
8:56 PM,30.9,21.9,69,29.79,10.0,West,9.2,-,N/A,,Scattered Clouds,280,2014-01-11 03:56:00
9:56 PM,35.1,24.1,64,29.77,10.0,West,12.7,-,N/A,,Clear,270,2014-01-11 04:56:00
10:56 PM,34.0,23.0,64,29.75,10.0,West,20.7,-,N/A,,Clear,260,2014-01-11 05:56:00
11:56 PM,35.1,23.0,61,29.73,10.0,West,20.7,-,N/A,,Clear,260,2014-01-11 06:56:00